Total_Precipitation_Accumulation
0.25 0.62 1.26 1.99 3.19 3.36 2.22 1.24 0.97 0.86 0.77 0.71 0.62 0.67 0.96 1.43 2.11 3.18 3.10 2.57 2.37 2.62 3.03 3.52 3.65 3.36 3.23 3.02 3.08 3.22 3.12 3.18 2.94 2.77 2.59 2.50 2.29 1.96 1.73 1.63 1.60 1.57 1.49 1.34 1.45 1.53 1.46 1.59 1.80
0.53 0.99 1.53 2.45 3.24 2.54 1.71 1.07 0.89 0.70 0.62 0.63 0.71 0.83 0.90 1.17 1.23 1.90 2.70 2.61 2.14 2.24 2.72 2.88 3.19 3.07 2.85 2.66 2.79 2.83 2.90 2.85 2.74 2.52 2.35 2.27 2.19 1.94 1.63 1.55 1.55 1.49 1.40 1.37 1.46 1.53 1.56 1.59 1.66
0.92 1.20 1.85 2.73 2.34 1.50 1.13 0.82 0.68 0.65 0.61 0.69 0.81 0.90 1.05 1.42 1.50 2.10 2.58 2.21 2.03 2.10 2.45 2.78 2.82 2.62 2.44 2.34 2.46 2.55 2.59 2.54 2.56 2.40 2.27 2.16 2.02 1.82 1.58 1.48 1.50 1.44 1.42 1.37 1.43 1.62 1.74 1.71 1.66
1.12 1.53 1.84 2.11 1.54 0.76 0.49 0.49 0.50 0.71 0.85 0.97 1.03 1.19 1.35 1.43 1.52 1.90 2.04 1.76 1.71 1.73 1.89 2.30 2.45 2.32 2.33 2.25 2.18 2.29 2.31 2.37 2.44 2.33 2.19 2.25 2.14 1.92 1.64 1.46 1.41 1.42 1.44 1.43 1.51 1.68 1.80 1.71 1.60
1.15 1.78 2.13 1.58 0.95 0.57 0.40 0.37 0.52 0.77 0.96 1.04 1.16 1.57 2.05 1.86 1.46 1.58 1.62 1.57 1.48 1.56 1.67 1.98 2.28 2.26 2.20 2.02 1.91 2.11 2.24 2.22 2.21 2.14 1.99 2.10 2.05 1.91 1.66 1.45 1.37 1.32 1.35 1.43 1.52 1.63 1.72 1.62 1.61
1.47 1.89 1.76 1.19 0.67 0.44 0.42 0.40 0.51 0.72 0.92 1.06 1.39 1.79 2.40 2.30 1.88 1.72 1.54 1.65 1.56 1.43 1.55 1.90 2.20 2.12 1.99 1.90 1.94 2.14 2.22 2.10 2.02 2.01 1.90 1.89 1.95 1.93 1.80 1.58 1.50 1.39 1.39 1.50 1.56 1.62 1.59 1.57 1.66
1.57 1.63 1.20 0.85 0.62 0.45 0.39 0.39 0.49 0.72 0.94 1.19 1.46 1.77 2.15 2.36 2.13 1.84 1.67 1.77 1.94 1.72 1.75 1.81 1.85 1.89 1.96 2.14 2.29 2.45 2.37 2.08 1.96 1.96 1.84 1.72 1.73 1.80 1.74 1.73 1.66 1.58 1.57 1.62 1.72 1.68 1.64 1.63 1.75
1.01 1.13 0.82 0.58 0.64 0.54 0.35 0.36 0.48 0.73 0.96 1.18 1.40 1.64 2.08 2.00 1.91 1.97 2.22 2.44 2.59 2.44 2.26 2.01 1.90 2.05 2.03 2.15 2.40 2.54 2.29 2.00 1.91 1.96 1.91 1.87 1.98 2.08 2.06 1.91 1.89 1.97 2.03 1.99 2.03 1.94 1.86 1.84 1.98
0.66 0.98 0.80 0.49 0.49 0.48 0.34 0.36 0.48 0.54 0.74 1.06 1.25 1.35 1.44 1.54 1.86 2.23 2.70 2.92 2.83 2.89 2.72 2.49 2.23 2.06 2.18 2.25 2.36 2.72 2.52 2.25 2.29 2.54 2.53 2.66 3.10 2.89 2.86 2.35 2.41 2.59 2.73 2.70 2.67 2.62 2.45 2.22 2.11
0.60 0.79 0.50 0.28 0.21 0.24 0.26 0.33 0.45 0.61 1.08 1.74 1.66 1.33 1.23 1.55 1.95 2.23 2.66 3.07 2.76 2.91 2.65 2.52 2.42 2.07 2.06 2.20 2.71 3.35 3.02 2.84 2.90 3.23 3.15 3.53 3.57 3.42 2.67 2.70 3.16 3.41 3.71 3.74 3.66 3.58 3.12 2.62 2.33
0.41 0.45 0.28 0.15 0.13 0.11 0.15 0.25 0.35 0.66 1.21 1.91 2.08 1.63 1.51 1.72 2.12 2.20 2.56 2.93 2.84 2.70 2.61 2.36 2.66 2.39 2.45 2.82 2.94 3.25 3.41 3.36 3.34 3.39 3.37 3.63 3.26 2.97 2.88 3.33 3.74 4.04 4.17 4.25 4.14 3.99 3.32 3.30 3.47
0.24 0.21 0.14 0.10 0.09 0.09 0.19 0.30 0.44 0.59 1.09 1.38 1.35 1.26 1.42 1.73 2.10 2.34 2.56 3.01 2.89 2.57 2.58 2.66 2.79 2.89 3.07 3.10 3.01 2.89 2.75 2.80 2.97 3.16 3.13 3.32 3.43 3.44 3.41 3.70 3.87 4.07 4.45 4.86 4.64 4.59 4.16 4.03 3.79
0.16 0.17 0.16 0.14 0.12 0.14 0.19 0.30 0.45 0.63 0.86 0.90 0.85 1.03 1.46 1.80 2.30 2.73 3.26 3.63 3.52 3.25 3.08 3.16 3.40 3.43 3.39 3.43 3.17 2.67 2.51 2.41 2.47 2.67 2.83 2.79 3.15 3.45 3.48 3.42 3.58 3.48 3.67 4.11 4.70 4.55 4.69 4.54 4.10
0.12 0.13 0.15 0.17 0.14 0.19 0.21 0.26 0.46 0.79 0.89 0.87 0.99 1.25 1.63 2.09 2.55 2.93 3.81 4.33 4.41 4.24 4.03 3.87 3.99 3.67 3.51 3.44 3.18 2.92 2.53 2.55 2.46 2.42 2.42 2.63 2.90 3.22 3.20 3.20 3.51 3.49 3.39 3.55 4.03 4.20 4.63 4.56 4.16
0.16 0.22 0.24 0.23 0.17 0.19 0.24 0.52 0.71 0.82 1.06 1.04 1.21 1.42 1.73 2.31 2.83 3.42 4.06 4.88 5.19 5.36 4.99 4.44 4.19 3.91 3.76 3.60 3.21 2.81 2.61 2.46 2.63 2.60 2.46 2.54 2.68 2.94 2.92 3.04 3.08 3.10 3.02 3.19 3.40 3.62 3.92 3.82 3.64
0.25 0.41 0.55 0.33 0.21 0.21 0.33 0.88 0.96 0.78 1.12 1.46 1.40 1.66 2.07 2.60 3.11 3.88 4.60 5.45 5.95 6.11 5.57 4.84 4.10 4.22 4.17 3.98 3.37 2.89 2.72 2.65 2.61 2.48 2.33 2.26 2.44 2.44 2.60 2.62 2.58 2.62 2.50 2.67 3.11 3.15 3.37 3.58 3.56
0.30 0.41 0.48 0.39 0.24 0.26 0.38 0.86 1.01 0.80 1.03 1.34 1.55 1.81 2.23 2.65 3.01 3.65 4.28 5.11 5.73 6.21 6.06 5.44 5.30 5.11 4.50 3.85 3.31 2.95 2.74 2.70 2.46 2.40 2.36 2.35 2.34 2.40 2.56 2.70 2.71 2.32 2.31 2.47 2.30 2.80 3.07 3.26 3.27
0.34 0.29 0.36 0.45 0.32 0.34 0.46 0.71 1.00 1.01 1.24 1.58 1.70 1.81 2.06 2.32 2.65 3.10 3.68 4.13 4.73 5.23 5.16 5.09 5.21 4.81 4.23 3.63 3.23 3.04 2.83 2.57 2.39 2.37 2.48 2.48 2.41 2.36 2.68 2.52 2.34 2.12 2.49 2.80 2.86 3.22 3.17 2.99 3.00
0.22 0.23 0.32 0.39 0.32 0.42 0.58 0.75 1.03 1.20 1.46 1.73 1.71 1.67 1.72 2.00 2.31 2.50 2.89 3.30 3.58 3.76 3.87 4.21 4.38 4.15 3.71 3.33 2.89 2.80 2.79 2.55 2.34 2.27 2.14 2.30 2.21 2.42 2.82 2.55 2.87 2.54 2.63 2.80 2.81 3.05 3.01 2.70 2.65
0.18 0.20 0.31 0.38 0.33 0.40 0.59 0.94 1.16 1.24 1.32 1.45 1.52 1.46 1.57 1.90 1.99 2.04 2.17 2.52 2.74 2.98 3.27 3.61 3.86 3.72 3.15 2.94 2.79 2.73 2.70 2.52 2.55 2.47 2.46 2.21 2.18 2.40 2.46 2.85 2.61 2.68 2.88 2.87 2.93 3.10 3.10 2.80 2.78
0.17 0.18 0.23 0.33 0.37 0.50 0.66 1.32 1.43 1.23 1.18 1.10 1.24 1.32 1.32 1.54 1.77 1.85 1.82 1.92 2.19 2.78 3.00 2.90 3.18 3.36 3.11 3.04 2.98 2.90 2.88 2.68 2.79 2.78 2.70 2.32 2.14 2.12 2.30 2.48 2.50 2.75 2.56 2.92 3.15 3.11 3.23 3.27 3.07
0.18 0.15 0.15 0.21 0.30 0.62 0.74 1.46 1.57 1.34 1.36 1.11 1.05 1.12 1.11 1.12 1.40 1.57 1.47 1.53 1.76 2.05 2.35 2.72 3.05 3.13 3.07 2.97 2.79 2.70 2.53 2.49 2.51 2.52 2.54 2.38 2.23 2.12 2.19 2.31 2.63 2.83 2.57 3.14 2.71 2.84 3.11 3.30 3.11
0.11 0.10 0.13 0.20 0.33 0.59 0.74 1.18 1.47 1.35 1.60 1.23 0.87 0.79 0.80 0.80 0.90 1.05 1.18 1.33 1.38 1.53 1.93 2.50 2.97 3.20 3.09 2.78 2.66 2.80 2.64 2.55 2.54 2.44 2.64 2.46 2.30 2.13 2.02 2.29 2.58 2.72 2.63 2.80 2.85 3.13 2.99 2.94 2.96
0.07 0.11 0.23 0.37 0.55 0.99 0.96 1.04 1.42 1.21 1.06 0.83 0.68 0.61 0.64 0.70 0.69 0.77 0.90 1.16 1.33 1.38 1.62 2.08 2.51 2.81 2.89 2.70 2.59 2.67 2.77 2.76 2.63 2.50 2.48 2.29 2.24 2.17 2.08 2.28 2.59 2.56 2.63 2.81 2.77 2.92 2.91 2.98 3.06
0.06 0.12 0.43 0.73 0.97 1.12 0.75 0.96 1.34 0.92 0.74 0.67 0.64 0.64 0.59 0.55 0.66 0.81 0.94 1.07 1.12 1.22 1.41 1.68 1.92 2.14 2.36 2.53 2.59 2.52 2.69 2.78 2.55 2.32 2.38 2.33 2.16 2.16 2.23 2.38 2.66 2.57 2.65 2.74 2.99 3.07 3.00 2.97 2.99
0.07 0.10 0.28 0.47 0.59 0.71 0.74 1.41 1.32 0.74 0.61 0.57 0.57 0.57 0.58 0.67 0.73 0.83 1.04 1.10 1.02 1.06 1.30 1.49 1.66 1.92 2.20 2.39 2.46 2.40 2.34 2.25 2.20 2.35 2.26 2.26 2.23 2.16 2.10 2.26 2.32 2.31 2.39 2.47 3.01 2.84 2.81 2.92 2.84
0.08 0.10 0.14 0.23 0.30 0.56 0.90 1.09 0.85 0.55 0.54 0.57 0.55 0.58 0.63 0.73 0.86 0.93 1.08 1.11 1.02 1.07 1.27 1.42 1.60 1.79 1.94 2.24 2.42 2.32 2.25 2.08 2.05 2.11 2.09 2.05 2.20 2.15 2.11 2.10 2.19 2.26 2.42 2.59 2.79 2.69 2.80 3.01 2.85
0.09 0.10 0.15 0.18 0.26 0.45 0.77 1.02 1.08 0.82 0.68 0.59 0.60 0.65 0.69 0.81 0.98 1.10 1.10 1.12 1.07 1.13 1.35 1.42 1.55 1.64 1.69 1.84 1.91 1.81 2.00 2.02 2.12 2.10 2.00 1.92 1.92 1.97 2.04 2.12 2.16 2.26 2.37 2.63 2.82 2.79 2.90 2.98 2.84
0.11 0.09 0.10 0.13 0.16 0.29 0.63 0.84 0.80 0.77 0.75 0.62 0.60 0.69 0.81 0.82 0.97 1.07 1.02 1.00 0.97 1.03 1.16 1.19 1.36 1.53 1.59 1.72 1.76 1.80 1.90 1.96 2.02 2.06 2.03 2.02 2.02 2.04 2.04 2.13 2.21 2.24 2.26 2.46 2.67 2.57 2.82 2.96 3.01
0.12 0.15 0.14 0.14 0.13 0.20 0.34 0.50 0.49 0.57 0.67 0.65 0.69 0.81 0.91 0.76 0.80 1.02 1.07 1.06 0.86 0.90 1.00 1.12 1.34 1.53 1.59 1.74 1.87 1.90 2.02 2.07 2.01 2.05 2.24 2.24 2.19 2.16 2.16 2.25 2.35 2.30 2.32 2.49 2.50 2.36 2.46 2.68 2.91